CST,Max TemperatureF,Mean TemperatureF,Min TemperatureF,Max Dew PointF,MeanDew PointF,Min DewpointF,Max Humidity, Mean Humidity, Min Humidity, Max Sea Level PressureIn, Mean Sea Level PressureIn, Min Sea Level PressureIn, Max VisibilityMiles, Mean VisibilityMiles, Min VisibilityMiles, Max Wind SpeedMPH, Mean Wind SpeedMPH, Max Gust SpeedMPH,PrecipitationIn, CloudCover, Events, WindDirDegrees
2014-1-1,9,1,-7,-4,-8,-14,74,62,46,30.42,30.37,30.34,10,10,10,9,3,,0.00,2,,36
2014-1-2,11,-3,-17,-4,-8,-23,83,65,45,30.44,30.38,30.32,10,10,7,12,5,,0.00,3,,360
2014-1-3,21,0,-21,13,-5,-27,83,69,57,30.39,30.02,29.62,10,10,10,16,5,29,0.00,2,,187
2014-1-4,32,21,9,28,14,-1,85,69,61,30.16,29.83,29.55,10,10,7,20,9,24,0.00,4,,281
2014-1-5,9,-1,-11,-1,-13,-20,68,59,49,30.28,30.22,30.16,10,10,7,14,9,21,0.00,3,,318
2014-1-6,-11,-16,-22,-21,-26,-32,68,60,50,30.22,30.18,30.15,10,10,4,17,11,26,0.00,5,,279
2014-1-7,4,-6,-17,-12,-18,-24,80,66,44,30.26,30.18,30.12,10,10,10,12,4,,0.00,0,,253
2014-1-8,7,-7,-21,-7,-18,-28,81,69,50,30.49,30.39,30.25,10,10,10,7,1,,0.00,0,,296
2014-1-9,20,-2,-25,17,-8,-32,86,69,45,30.47,30.28,30.04,10,10,7,8,2,,0.00,4,,162
2014-1-10,31,26,20,32,26,17,100,96,86,30.03,29.76,29.46,10,4,2,9,4,,0.00,8,Snow,149
2014-1-11,30,28,26,30,27,23,100,92,84,29.74,29.56,29.45,10,6,2,13,6,18,0.00,8,Snow,270
2014-1-12,42,31,20,30,26,19,99,74,54,29.73,29.56,29.45,10,10,5,17,5,25,0.22,3,,201
2014-1-13,35,26,18,32,24,14,97,78,51,29.69,29.60,29.50,10,10,10,14,4,21,0.00,5,,263
2014-1-14,32,22,13,30,21,7,100,87,71,30.01,29.69,29.45,10,5,0,18,6,30,0.00,8,Snow,314
2014-1-15,19,11,4,14,3,-1,83,74,63,30.10,29.94,29.56,10,10,5,15,8,26,0.00,6,Snow,257
2014-1-16,33,21,9,29,14,0,89,71,56,29.76,29.53,29.39,10,10,1,18,8,28,0.00,8,Snow,253
2014-1-17,18,6,-7,7,2,-11,88,76,60,29.98,29.88,29.76,10,8,1,14,7,22,0.00,3,Snow,296
2014-1-18,19,6,-6,12,2,-11,92,82,71,29.92,29.81,29.70,10,8,0,12,2,,0.00,3,Snow,63
2014-1-19,36,22,8,28,20,6,95,75,56,29.77,29.58,29.45,10,10,10,14,5,20,0.00,3,,255
2014-1-20,31,16,1,26,13,-10,86,72,56,30.32,29.95,29.67,10,9,1,17,7,25,0.00,7,Snow,345
2014-1-21,3,-8,-18,-5,-14,-22,84,63,48,30.40,30.29,30.07,10,10,5,12,4,,0.00,2,Snow,286
2014-1-22,8,2,-4,2,-6,-15,81,68,56,30.32,30.04,29.90,10,7,1,18,7,28,0.00,6,Snow,284
2014-1-23,1,-9,-19,-13,-16,-26,84,64,52,30.63,30.52,30.32,10,10,10,13,8,18,0.00,0,,278
2014-1-24,32,12,-9,30,8,-13,99,69,53,30.35,29.75,29.41,10,9,1,20,7,28,0.00,7,Snow,231
2014-1-25,30,16,2,21,-5,-11,70,49,34,29.82,29.69,29.43,10,9,4,26,13,39,0.00,1,Snow,290
2014-1-26,19,10,0,12,2,-10,86,75,48,29.92,29.52,29.36,10,5,1,26,8,40,0.00,3,Snow,284
2014-1-27,0,-7,-14,-7,-19,-25,73,59,46,30.39,30.25,29.94,10,10,3,17,11,31,0.00,2,,278
2014-1-28,1,-14,-29,-11,-19,-37,77,64,45,30.36,30.26,30.12,10,10,10,14,5,21,0.00,0,,251
2014-1-29,29,4,-21,12,-6,-28,81,57,33,30.12,29.95,29.69,10,10,10,15,4,25,0.00,0,,214
2014-1-30,30,17,2,27,15,-1,100,71,48,29.99,29.66,29.47,10,8,1,16,9,24,0.00,5,Snow,232
2014-1-31,6,-4,-14,0,-11,-19,86,71,51,30.18,30.10,29.98,10,10,4,8,3,,0.00,0,,262